sat.trackr.live / text

‹ back to catalog

STARLINK-34883

NORAD 65426 · 2025-192Y

PAYLOAD ACTIVE UNKNOWN

§ Identity

Operator
Country
US
Launch date
2025-08-31
Launch site
AFETR
Launch vehicle
Mass (kg)
RCS (m²)

Purposes: comms

External: N2YO · Heavens-Above · Gunter

§ Orbital elements

Epoch: 2026-09-20T20:36:37.213920Z

Period
94.01 min
Inclination
53.1611°
Eccentricity
0.0001089
Mean motion
15.31715408 rev/d
Perigee alt
469.9 km
Apogee alt
471.4 km
Semi-major
6,848.8 km
B*
5.1388e-4
RAAN
44.5188°
Arg perigee
81.9771°
Mean anomaly
278.1354°
Rev number
5,927

§ Raw data

STARLINK-348831 65426U 25192Y   26263.85876405  .00015622  00000+0  51388-3 0  99972 65426  53.1611  44.5188 0001089  81.9771 278.1354 15.31715408 59271

JSON: /api/v1/satellites/65426 · /tle

For live sub-satellite position, see the globe view (requires WebGL).

§ Visibility from observer

Set your observer location to see the next 7 days of passes ≥ 10°. The values pass through the URL so the page stays shareable.

No JS? Fill the form by hand. The geolocation button needs JavaScript.